sat.trackr.live / text

‹ back to catalog

ONEWEB-0687

NORAD 61595 · 2024-188B

PAYLOAD ACTIVE UNKNOWN

§ Identity

Operator
Country
UK
Launch date
2024-10-20
Launch site
AFWTR
Launch vehicle
Mass (kg)
RCS (m²)

Purposes: comms

External: N2YO · Heavens-Above · Gunter

§ Orbital elements

Epoch: 2026-05-25T03:30:30.841056Z

Period
109.29 min
Inclination
87.9147°
Eccentricity
0.0002118
Mean motion
13.17650280 rev/d
Perigee alt
1,192.1 km
Apogee alt
1,195.3 km
Semi-major
7,571.8 km
B*
1.1233e-4
RAAN
10.4601°
Arg perigee
96.7946°
Mean anomaly
263.3427°
Rev number
8,286

§ Raw data

ONEWEB-06871 61595U 24188B   26145.14619029  .00000056  00000+0  11233-3 0  99922 61595  87.9147  10.4601 0002118  96.7946 263.3427 13.17650280 82863

JSON: /api/v1/satellites/61595 · /tle

For live sub-satellite position, see the globe view (requires WebGL).

§ Visibility from observer

Set your observer location to see the next 7 days of passes ≥ 10°. The values pass through the URL so the page stays shareable.

No JS? Fill the form by hand. The geolocation button needs JavaScript.